#timestamp,LO_Frequency,Hit,StdDev 
1456189215.5,286046998.4,N
1456189235.4,286047000.0,N
1456189255.2,286047001.5,N
1456189275.0,286047002.1,N
1456189275.9,286047002.1,N
1456189295.7,286047002.3,N
1456189315.6,286047001.0,N
1456189335.4,286047002.1,N
1456189355.2,286047001.4,N
1456189375.1,286047002.2,N
1456189376.0,286047002.2,N
1456189395.8,286046998.8,N
1456189415.6,286046997.2,N
1456189435.5,286046995.7,N
1456189455.3,286046994.1,N
1456189475.1,286046997.2,N
1456189495.9,286046997.3,N
1456189515.7,286046992.0,Y
1456189535.5,286046992.4,P
1456189555.4,286046991.9,N
1456189575.2,286046996.3,N
1456189595.0,286046994.7,N
1456189595.9,286046994.7,N
1456189615.8,286046990.3,Y
1456189635.6,286047000.6,P
1456189655.4,286046999.3,N
1456189675.3,286046997.7,N
1456189695.1,286046995.0,N
1456189696.0,286046995.0,N
1456189715.8,286046997.8,N
1456189735.7,286046994.2,N
1456189755.5,286046994.4,N
1456189775.3,286046997.2,N
1456189795.2,286046997.4,N
1456189815.9,286046997.5,N
1456189835.7,286046995.3,N
1456189855.5,286046996.2,N
1456189875.4,286046995.8,N
1456189895.2,286046996.5,N
1456189915.0,286046994.9,N
1456189915.9,286046994.9,N
1456189935.8,286046995.4,N
1456189955.6,286046997.3,N
1456189975.4,286046996.8,N
1456189995.3,286046996.2,N
1456190015.1,286046995.2,Y
1456190035.8,286046998.8,P
1456190055.7,286046996.8,N
1456190075.5,286046994.9,P
1456190095.3,286046999.2,N
1456190115.2,286047001.2,N
1456190135.9,286047001.0,N
1456190155.7,286047001.3,N
1456190175.6,286047001.9,N
1456190195.4,286047004.4,N
1456190215.2,286047003.9,N
1456190235.0,286047006.0,N
1456190236.0,286047006.0,N
1456190255.8,286047004.8,N
1456190275.6,286047005.1,N
1456190295.4,286047003.4,N
1456190315.3,286047004.2,N
1456190335.1,286047001.6,N
1456190355.8,286047004.3,N
1456190375.7,286047004.1,N
1456190395.5,286047007.1,N
1456190415.3,286047003.1,N
1456190435.2,286047009.2,N
1456190455.9,286047007.6,N
1456190475.7,286047004.2,N
1456190495.5,286047006.8,N
1456190515.4,286047007.5,N
1456190535.2,286047008.8,N
1456190555.0,286047007.4,N
1456190555.9,286047007.4,N
1456190575.8,286047012.0,Y
1456190595.6,286047008.4,P
1456190615.4,286047009.2,P
1456190635.3,286047005.3,N
1456190655.1,286047007.0,Y
1456190675.8,286047000.2,P
1456190695.7,286047001.7,N
1456190715.5,286047001.1,N
1456190735.3,286046998.9,N
1456190755.2,286047001.2,N
1456190775.9,286047002.4,N
1456190795.7,286047003.1,N
1456190815.6,286047004.0,N
1456190835.4,286046998.6,N
1456190855.2,286047004.1,N
1456190875.1,286047000.1,N
1456190876.0,286047000.1,N
1456190895.8,286047000.5,N
1456190915.6,286046998.8,N
1456190935.5,286046996.9,N
1456190955.3,286046997.0,N
1456190975.1,286047000.7,N
1456190995.8,286047000.9,N
1456191015.7,286047002.6,N
1456191035.5,286047002.3,N
1456191055.3,286047007.2,Y
1456191075.2,286047003.8,P
1456191095.0,286047001.2,N
1456191095.9,286047001.2,N
1456191115.7,286046997.2,N
1456191135.6,286046999.2,N
1456191155.4,286046997.2,N
1456191175.2,286046994.1,N
1456191195.1,286046996.2,N
1456191196.0,286046996.2,N
1456191215.8,286046996.8,N
1456191235.6,286046996.5,N
1456191255.5,286046993.5,N
1456191275.3,286046995.5,N
1456191295.1,286046993.8,N
1456191315.9,286046997.5,N
1456191335.7,286046996.9,N
1456191355.5,286046998.3,N
1456191375.3,286046995.3,N
1456191395.2,286046997.4,N
1456191415.0,286046996.0,N
1456191415.9,286046996.0,N
1456191435.7,286046997.6,N
1456191455.6,286046994.0,N
1456191475.4,286046994.4,N
1456191495.2,286046995.1,N
1456191515.1,286046995.9,N
1456191516.0,286046995.9,N
1456191535.8,286046995.5,N
1456191555.6,286046994.7,N
1456191575.5,286046993.8,N
1456191595.3,286046997.4,N
1456191615.1,286046998.3,N
1456191635.9,286046996.5,N
1456191655.7,286046999.0,N
1456191675.5,286046995.0,Y
1456191695.4,286047002.6,P
1456191715.2,286047000.6,N
1456191735.0,286047001.4,N
1456191735.9,286047001.4,N
1456191755.8,286047006.1,N
1456191775.6,286047006.3,N
1456191795.4,286047005.3,N
1456191815.2,286047006.1,N
1456191835.1,286047007.5,N
1456191836.0,286047007.5,N
1456191855.8,286047005.8,N
1456191875.6,286047002.2,N
1456191895.5,286047001.3,N
1456191915.3,286047004.1,N
1456191935.1,286047005.2,N
1456191955.9,286047003.6,N
1456191975.7,286047003.5,N
1456191995.5,286047004.2,N
1456192015.4,286047001.8,N
1456192035.2,286047005.2,N
1456192055.0,286047005.3,N
1456192055.9,286047005.3,N
1456192075.7,286047002.9,N
1456192095.6,286047006.0,N
1456192115.4,286047006.8,N
1456192135.2,286047005.3,N
1456192155.1,286047004.3,N
1456192156.0,286047004.3,N
1456192175.8,286047001.4,N
1456192195.6,286047002.2,N
1456192215.5,286047000.4,N
1456192235.3,286047005.3,N
1456192255.1,286047005.2,N
1456192275.9,286047000.0,N
1456192295.7,286046997.2,N
1456192315.5,286046997.1,N
1456192335.4,286047000.9,N
1456192355.2,286047000.5,N
1456192375.0,286047000.0,N
1456192375.9,286047000.0,N
1456192395.7,286047000.7,N
1456192415.6,286046999.0,N
1456192435.4,286046998.7,N
1456192455.2,286046998.5,N
1456192475.1,286046997.2,N
1456192476.0,286046997.2,N
1456192495.8,286046999.1,N
1456192515.6,286046999.1,N
1456192535.5,286046995.4,N
1456192555.3,286046999.1,N
1456192575.1,286046998.9,N
1456192595.9,286047001.9,N
1456192615.7,286047002.3,N
1456192635.5,286047001.5,N
1456192655.4,286047002.5,N
1456192675.2,286046998.9,N
1456192695.0,286047001.6,N
1456192695.9,286047001.6,N
1456192715.8,286047004.1,N
1456192735.6,286047003.5,N
1456192755.4,286047003.1,N
1456192775.3,286047002.9,N
1456192795.1,286047005.9,N
1456192796.0,286047005.9,N
